Location: Eindhoven
(51.4416°N, 5.4697°E)
Time: 11:53:56
(UTC+01:00)

deb Explorer IX - Pass Details

Date: 26 November 2019
Orbit: 545 x 1105 km, 38.8° (Epoch: 05 December)

Event Time Altitude Azimuth Distance (km) Brightness Sun altitude
Rises 22:28:17 0° 218° (SW) 3,911 - -52.0°
Reaches altitude 10° 22:31:50 10° 203° (SSW) 2,949 - -52.4°
Maximum altitude 22:36:50 20° 159° (SSE) 2,241 - -52.9°
Drops below altitude 10° 22:41:39 10° 115° (ESE) 2,820 - -53.5°
Sets 22:44:57 0° 100° (E) 3,691 - -53.8°
